FALCON 9 DEB (47411 NORAD) Tracking and Keplerian Element Data
This shows tracking and keplerian element data for the satellite.
Feedback or suggestion? Click here.
Element | Value |
Catalog | 47411 |
Name | FALCON 9 DEB |
Epoch Orbit | 510 |
Epoch Day | 50.22506871 |
Epoch Year | 2021 |
RAAN | 56.6171 |
Inclination | 53.0373 |
Eccentricity | 0.0003909 |
Argument of Perigee | 274.3292 |
Mean Anonmoly | 85.7311 |
Mean Motion | 16.48495341 |
Decay Rate | 0.11000102 |
L1 | 1 47411U 21005BQ 21050.22506871 .11000102 12603-4 16409-3 0 9998 |
L2 | 2 47411 53.0373 56.6171 0003909 274.3292 85.7311 16.48495341 5102 |
Live tracking and technical data element details for FALCON 9 DEB (NORAD 47411). FALCON 9 DEB can be tracked NOW for your location showing map with azimuth and elevation plus other details from your city location.
Track the satellite on the map from your city or location and see movement details for azimuth, elevation, latitude, longitude, range, height, and movement on the map or in text.
IsCatalogInMostPopularTable: catalog: 47411, numindb: 14
Update: records affected: 1
GetName: 47411 FALCON 9 DEB
Hit Count: updated at: Sat, 10 Apr 2021 19:56:00 GMT